Time,TemperatureF,DewpointF,PressureIn,WindDirection,WindDirectionDegrees,WindSpeedMPH,WindSpeedGustMPH,Humidity,HourlyPrecipIn,Conditions,Clouds,dailyrainin,SoftwareType,DateUTC
2013-08-14 00:01:00,81.0,78.0,30.01,SSW,202,0.0,11.0,92,0.00,,,0.00,Rainwise IP-100,2013-08-14 04:01:00,
2013-08-14 00:06:00,81.0,78.0,30.01,SW,225,0.0,5.0,92,0.00,,,0.00,Rainwise IP-100,2013-08-14 04:06:00,
2013-08-14 00:11:00,81.0,79.0,30.01,South,180,0.0,1.0,93,0.00,,,0.00,Rainwise IP-100,2013-08-14 04:11:00,
2013-08-14 00:16:00,81.0,79.0,30.00,SSE,157,0.0,6.0,93,0.00,,,0.00,Rainwise IP-100,2013-08-14 04:16:00,
2013-08-14 00:21:00,81.0,79.0,30.00,SSE,157,3.0,6.0,93,0.00,,,0.00,Rainwise IP-100,2013-08-14 04:21:00,
2013-08-14 00:26:00,81.0,79.0,30.00,SSW,202,2.0,4.0,94,0.00,,,0.00,Rainwise IP-100,2013-08-14 04:26:00,
2013-08-14 00:31:00,81.0,79.0,30.00,SSW,202,0.0,9.0,94,0.00,,,0.00,Rainwise IP-100,2013-08-14 04:31:00,
2013-08-14 00:36:00,81.0,79.0,30.00,South,180,0.0,6.0,94,0.00,,,0.00,Rainwise IP-100,2013-08-14 04:36:00,
2013-08-14 00:41:00,81.0,79.0,30.00,SW,225,0.0,6.0,95,0.00,,,0.00,Rainwise IP-100,2013-08-14 04:41:00,
2013-08-14 00:46:00,81.0,79.0,30.00,WSW,247,1.0,7.0,95,0.00,,,0.00,Rainwise IP-100,2013-08-14 04:46:00,
2013-08-14 00:51:00,81.0,79.0,30.00,South,180,0.0,6.0,95,0.00,,,0.00,Rainwise IP-100,2013-08-14 04:51:00,
2013-08-14 00:56:00,81.0,79.0,30.00,SW,225,2.0,6.0,95,0.00,,,0.00,Rainwise IP-100,2013-08-14 04:56:00,
2013-08-14 01:01:00,81.0,79.0,29.99,WNW,292,0.0,6.0,95,0.00,,,0.00,Rainwise IP-100,2013-08-14 05:01:00,
2013-08-14 01:06:00,81.0,79.0,29.99,NW,315,0.0,5.0,95,0.00,,,0.00,Rainwise IP-100,2013-08-14 05:06:00,
2013-08-14 01:11:00,81.0,79.0,29.99,WSW,247,0.0,4.0,95,0.00,,,0.00,Rainwise IP-100,2013-08-14 05:11:00,
2013-08-14 01:16:00,81.0,79.0,29.99,SW,225,0.0,9.0,95,0.00,,,0.00,Rainwise IP-100,2013-08-14 05:16:00,
2013-08-14 01:21:00,81.0,79.0,29.99,WSW,247,0.0,7.0,94,0.00,,,0.00,Rainwise IP-100,2013-08-14 05:21:00,
2013-08-14 01:26:00,81.0,79.0,30.00,SSW,202,1.0,5.0,93,0.00,,,0.00,Rainwise IP-100,2013-08-14 05:26:00,
2013-08-14 01:31:00,81.0,79.0,30.00,South,180,0.0,5.0,93,0.00,,,0.00,Rainwise IP-100,2013-08-14 05:31:00,
2013-08-14 01:36:00,81.0,79.0,30.00,SW,225,0.0,0.0,93,0.00,,,0.00,Rainwise IP-100,2013-08-14 05:36:00,
2013-08-14 01:41:00,81.0,77.0,29.99,SW,225,6.0,6.0,90,0.00,,,0.00,Rainwise IP-100,2013-08-14 05:41:00,
2013-08-14 01:46:00,82.0,77.0,30.00,SW,225,3.0,11.0,87,0.00,,,0.00,Rainwise IP-100,2013-08-14 05:46:00,
2013-08-14 01:51:00,82.0,77.0,30.00,WSW,247,4.0,10.0,85,0.00,,,0.00,Rainwise IP-100,2013-08-14 05:51:00,
2013-08-14 01:56:00,82.0,77.0,30.00,ENE,67,1.0,10.0,85,0.00,,,0.00,Rainwise IP-100,2013-08-14 05:56:00,
2013-08-14 02:01:00,82.0,77.0,30.00,South,180,2.0,6.0,85,0.00,,,0.00,Rainwise IP-100,2013-08-14 06:01:00,
2013-08-14 02:06:00,82.0,77.0,30.00,SSW,202,0.0,7.0,87,0.00,,,0.00,Rainwise IP-100,2013-08-14 06:06:00,
2013-08-14 02:11:00,81.0,76.0,30.00,SW,225,6.0,10.0,85,0.00,,,0.00,Rainwise IP-100,2013-08-14 06:11:00,
2013-08-14 02:16:00,81.0,76.0,29.99,ESE,112,0.0,6.0,84,0.00,,,0.00,Rainwise IP-100,2013-08-14 06:16:00,
2013-08-14 02:21:00,81.0,75.0,29.99,SE,135,0.0,6.0,83,0.00,,,0.00,Rainwise IP-100,2013-08-14 06:21:00,
2013-08-14 02:26:00,81.0,75.0,29.99,SSW,202,0.0,7.0,83,0.00,,,0.00,Rainwise IP-100,2013-08-14 06:26:00,
2013-08-14 02:31:00,81.0,75.0,29.99,SSW,202,0.0,7.0,83,0.00,,,0.00,Rainwise IP-100,2013-08-14 06:31:00,
2013-08-14 02:36:00,81.0,76.0,29.98,SW,225,0.0,12.0,84,0.00,,,0.00,Rainwise IP-100,2013-08-14 06:36:00,
2013-08-14 02:41:00,81.0,76.0,29.98,South,180,0.0,9.0,85,0.00,,,0.00,Rainwise IP-100,2013-08-14 06:41:00,
2013-08-14 02:46:00,81.0,76.0,29.98,SW,225,0.0,8.0,85,0.00,,,0.00,Rainwise IP-100,2013-08-14 06:46:00,
2013-08-14 02:51:00,80.0,75.0,29.98,SW,225,0.0,13.0,85,0.00,,,0.00,Rainwise IP-100,2013-08-14 06:51:00,
2013-08-14 02:56:00,80.0,75.0,29.98,SW,225,0.0,8.0,86,0.00,,,0.00,Rainwise IP-100,2013-08-14 06:56:00,
2013-08-14 03:01:00,80.0,76.0,29.98,SSW,202,0.0,2.0,87,0.00,,,0.00,Rainwise IP-100,2013-08-14 07:01:00,
2013-08-14 03:06:00,80.0,76.0,29.98,SSE,157,0.0,5.0,88,0.00,,,0.00,Rainwise IP-100,2013-08-14 07:06:00,
2013-08-14 03:11:00,80.0,76.0,29.98,SE,135,0.0,3.0,88,0.00,,,0.00,Rainwise IP-100,2013-08-14 07:11:00,
2013-08-14 03:16:00,80.0,76.0,29.98,South,180,2.0,5.0,88,0.00,,,0.00,Rainwise IP-100,2013-08-14 07:16:00,
2013-08-14 03:21:00,80.0,76.0,29.98,South,180,0.0,7.0,88,0.00,,,0.00,Rainwise IP-100,2013-08-14 07:21:00,
2013-08-14 03:26:00,80.0,76.0,29.98,South,180,0.0,10.0,88,0.00,,,0.00,Rainwise IP-100,2013-08-14 07:26:00,
2013-08-14 03:31:00,80.0,76.0,29.97,South,180,0.0,6.0,88,0.00,,,0.00,Rainwise IP-100,2013-08-14 07:31:00,
2013-08-14 03:36:00,80.0,76.0,29.97,SSW,202,0.0,7.0,88,0.00,,,0.00,Rainwise IP-100,2013-08-14 07:36:00,
2013-08-14 03:41:00,80.0,76.0,29.97,SSW,202,4.0,9.0,88,0.00,,,0.00,Rainwise IP-100,2013-08-14 07:41:00,
2013-08-14 03:46:00,80.0,76.0,29.97,South,180,0.0,10.0,88,0.00,,,0.00,Rainwise IP-100,2013-08-14 07:46:00,
2013-08-14 03:51:00,80.0,76.0,29.97,SW,225,0.0,10.0,88,0.00,,,0.00,Rainwise IP-100,2013-08-14 07:51:00,
2013-08-14 03:56:00,80.0,76.0,29.97,SSW,202,0.0,6.0,88,0.00,,,0.00,Rainwise IP-100,2013-08-14 07:56:00,
2013-08-14 04:01:00,80.0,76.0,29.97,SW,225,0.0,6.0,88,0.00,,,0.00,Rainwise IP-100,2013-08-14 08:01:00,
2013-08-14 04:06:00,80.0,76.0,29.97,SSW,202,2.0,7.0,88,0.00,,,0.00,Rainwise IP-100,2013-08-14 08:06:00,
2013-08-14 04:11:00,80.0,76.0,29.97,SSW,202,0.0,8.0,88,0.00,,,0.00,Rainwise IP-100,2013-08-14 08:11:00,
2013-08-14 04:16:00,80.0,76.0,29.97,SW,225,0.0,6.0,89,0.00,,,0.00,Rainwise IP-100,2013-08-14 08:16:00,
2013-08-14 04:21:00,80.0,76.0,29.97,SW,225,2.0,6.0,89,0.00,,,0.00,Rainwise IP-100,2013-08-14 08:21:00,
2013-08-14 04:26:00,80.0,76.0,29.97,SW,225,5.0,7.0,89,0.00,,,0.00,Rainwise IP-100,2013-08-14 08:26:00,
2013-08-14 04:31:00,80.0,76.0,29.96,SSW,202,0.0,7.0,89,0.00,,,0.00,Rainwise IP-100,2013-08-14 08:31:00,
2013-08-14 04:36:00,80.0,76.0,29.97,SSW,202,4.0,9.0,88,0.00,,,0.00,Rainwise IP-100,2013-08-14 08:36:00,
2013-08-14 04:41:00,80.0,76.0,29.97,SW,225,2.0,9.0,89,0.00,,,0.00,Rainwise IP-100,2013-08-14 08:41:00,
2013-08-14 04:46:00,80.0,76.0,29.97,SW,225,6.0,11.0,88,0.00,,,0.00,Rainwise IP-100,2013-08-14 08:46:00,
2013-08-14 04:51:00,79.0,75.0,29.97,SW,225,5.0,6.0,89,0.00,,,0.00,Rainwise IP-100,2013-08-14 08:51:00,
2013-08-14 04:56:00,79.0,75.0,29.97,SSW,202,6.0,9.0,89,0.00,,,0.00,Rainwise IP-100,2013-08-14 08:56:00,
2013-08-14 05:01:00,79.0,76.0,29.98,SW,225,2.0,9.0,90,0.00,,,0.00,Rainwise IP-100,2013-08-14 09:01:00,
2013-08-14 05:06:00,79.0,76.0,29.98,SW,225,3.0,9.0,90,0.00,,,0.00,Rainwise IP-100,2013-08-14 09:06:00,
2013-08-14 05:11:00,79.0,76.0,29.98,SW,225,6.0,9.0,90,0.00,,,0.00,Rainwise IP-100,2013-08-14 09:11:00,
2013-08-14 05:16:00,79.0,76.0,29.98,SW,225,9.0,10.0,90,0.00,,,0.00,Rainwise IP-100,2013-08-14 09:16:00,
2013-08-14 05:21:00,79.0,76.0,29.98,SW,225,3.0,10.0,90,0.00,,,0.00,Rainwise IP-100,2013-08-14 09:21:00,
2013-08-14 05:26:00,79.0,75.0,29.98,SSW,202,8.0,12.0,88,0.00,,,0.00,Rainwise IP-100,2013-08-14 09:26:00,
2013-08-14 05:31:00,79.0,75.0,29.97,SW,225,1.0,13.0,88,0.00,,,0.00,Rainwise IP-100,2013-08-14 09:31:00,
2013-08-14 05:36:00,79.0,75.0,29.98,SSW,202,1.0,10.0,88,0.00,,,0.00,Rainwise IP-100,2013-08-14 09:36:00,
2013-08-14 05:41:00,79.0,75.0,29.98,SW,225,7.0,10.0,88,0.00,,,0.00,Rainwise IP-100,2013-08-14 09:41:00,
2013-08-14 05:46:00,79.0,75.0,29.98,SW,225,5.0,10.0,89,0.00,,,0.00,Rainwise IP-100,2013-08-14 09:46:00,
2013-08-14 05:51:00,79.0,75.0,29.98,SW,225,5.0,10.0,89,0.00,,,0.00,Rainwise IP-100,2013-08-14 09:51:00,
2013-08-14 05:56:00,78.0,74.0,29.98,SW,225,2.0,10.0,89,0.00,,,0.00,Rainwise IP-100,2013-08-14 09:56:00,
2013-08-14 06:01:00,78.0,74.0,29.98,West,270,6.0,12.0,89,0.00,,,0.00,Rainwise IP-100,2013-08-14 10:01:00,
2013-08-14 06:06:00,78.0,74.0,29.97,SW,225,2.0,10.0,90,0.00,,,0.00,Rainwise IP-100,2013-08-14 10:06:00,
2013-08-14 06:11:00,78.0,74.0,29.98,SW,225,6.0,8.0,90,0.00,,,0.00,Rainwise IP-100,2013-08-14 10:11:00,
2013-08-14 06:16:00,78.0,75.0,29.97,SW,225,6.0,9.0,91,0.00,,,0.00,Rainwise IP-100,2013-08-14 10:16:00,
2013-08-14 06:20:00,78.0,75.0,29.97,SW,225,2.0,9.0,91,0.00,,,0.00,Rainwise IP-100,2013-08-14 10:20:00,
2013-08-14 06:25:00,78.0,75.0,29.97,SSW,202,5.0,10.0,91,0.00,,,0.00,Rainwise IP-100,2013-08-14 10:25:00,
2013-08-14 06:30:00,78.0,75.0,29.98,SSW,202,3.0,9.0,92,0.00,,,0.00,Rainwise IP-100,2013-08-14 10:30:00,
2013-08-14 06:35:00,78.0,75.0,29.98,SSW,202,5.0,10.0,92,0.00,,,0.00,Rainwise IP-100,2013-08-14 10:35:00,
2013-08-14 06:40:00,78.0,75.0,29.98,SW,225,3.0,10.0,92,0.00,,,0.00,Rainwise IP-100,2013-08-14 10:40:00,
2013-08-14 06:45:00,78.0,75.0,29.98,SW,225,0.0,10.0,92,0.00,,,0.00,Rainwise IP-100,2013-08-14 10:45:00,
2013-08-14 06:50:00,77.0,74.0,29.98,SW,225,2.0,6.0,92,0.00,,,0.00,Rainwise IP-100,2013-08-14 10:50:00,
2013-08-14 06:55:00,77.0,74.0,29.99,SW,225,2.0,5.0,93,0.00,,,0.00,Rainwise IP-100,2013-08-14 10:55:00,
2013-08-14 07:00:00,77.0,74.0,29.99,SW,225,3.0,6.0,93,0.00,,,0.00,Rainwise IP-100,2013-08-14 11:00:00,
2013-08-14 07:05:00,77.0,74.0,29.99,SW,225,0.0,7.0,93,0.00,,,0.00,Rainwise IP-100,2013-08-14 11:05:00,
2013-08-14 07:10:00,77.0,74.0,29.99,SW,225,0.0,6.0,93,0.00,,,0.00,Rainwise IP-100,2013-08-14 11:10:00,
2013-08-14 07:15:00,77.0,74.0,30.00,WSW,247,0.0,5.0,93,0.00,,,0.00,Rainwise IP-100,2013-08-14 11:15:00,
2013-08-14 07:20:00,77.0,74.0,30.00,West,270,0.0,4.0,93,0.00,,,0.00,Rainwise IP-100,2013-08-14 11:20:00,
2013-08-14 07:25:00,77.0,74.0,29.99,SW,225,4.0,6.0,93,0.00,,,0.00,Rainwise IP-100,2013-08-14 11:25:00,
2013-08-14 07:30:00,77.0,74.0,30.00,SW,225,1.0,5.0,93,0.00,,,0.00,Rainwise IP-100,2013-08-14 11:30:00,
2013-08-14 07:35:00,77.0,74.0,30.00,SW,225,0.0,6.0,93,0.00,,,0.00,Rainwise IP-100,2013-08-14 11:35:00,
2013-08-14 07:40:00,77.0,74.0,30.00,SW,225,2.0,7.0,93,0.00,,,0.00,Rainwise IP-100,2013-08-14 11:40:00,
2013-08-14 07:45:00,78.0,76.0,30.00,SSW,202,4.0,6.0,93,0.00,,,0.00,Rainwise IP-100,2013-08-14 11:45:00,
2013-08-14 07:50:00,78.0,75.0,30.01,WSW,247,6.0,6.0,92,0.00,,,0.00,Rainwise IP-100,2013-08-14 11:50:00,
2013-08-14 07:55:00,78.0,75.0,30.01,South,180,1.0,10.0,92,0.00,,,0.00,Rainwise IP-100,2013-08-14 11:55:00,
2013-08-14 08:00:00,78.0,75.0,30.01,SSW,202,6.0,9.0,92,0.00,,,0.00,Rainwise IP-100,2013-08-14 12:00:00,
2013-08-14 08:05:00,78.0,75.0,30.01,SW,225,6.0,7.0,92,0.00,,,0.00,Rainwise IP-100,2013-08-14 12:05:00,
2013-08-14 08:10:00,78.0,75.0,30.01,South,180,0.0,8.0,91,0.00,,,0.00,Rainwise IP-100,2013-08-14 12:10:00,
2013-08-14 08:15:00,78.0,75.0,30.02,SW,225,0.0,6.0,92,0.00,,,0.00,Rainwise IP-100,2013-08-14 12:15:00,
2013-08-14 08:20:00,79.0,76.0,30.02,SW,225,2.0,4.0,91,0.00,,,0.00,Rainwise IP-100,2013-08-14 12:20:00,
2013-08-14 08:25:00,79.0,76.0,30.02,SSW,202,4.0,7.0,90,0.00,,,0.00,Rainwise IP-100,2013-08-14 12:25:00,
2013-08-14 08:30:00,79.0,76.0,30.02,SW,225,7.0,7.0,90,0.00,,,0.00,Rainwise IP-100,2013-08-14 12:30:00,
2013-08-14 08:35:00,79.0,76.0,30.02,SW,225,1.0,7.0,90,0.00,,,0.00,Rainwise IP-100,2013-08-14 12:35:00,
2013-08-14 08:40:00,79.0,75.0,30.02,SW,225,0.0,5.0,89,0.00,,,0.00,Rainwise IP-100,2013-08-14 12:40:00,
2013-08-14 08:45:00,79.0,75.0,30.02,SW,225,0.0,7.0,89,0.00,,,0.00,Rainwise IP-100,2013-08-14 12:45:00,
2013-08-14 08:50:00,79.0,75.0,30.02,SW,225,0.0,7.0,89,0.00,,,0.00,Rainwise IP-100,2013-08-14 12:50:00,
2013-08-14 08:55:00,79.0,75.0,30.02,SW,225,2.0,7.0,88,0.00,,,0.00,Rainwise IP-100,2013-08-14 12:55:00,
2013-08-14 09:00:00,79.0,75.0,30.02,SSW,202,0.0,9.0,88,0.00,,,0.00,Rainwise IP-100,2013-08-14 13:00:00,
2013-08-14 09:05:00,79.0,75.0,30.02,SSW,202,4.0,6.0,89,0.00,,,0.00,Rainwise IP-100,2013-08-14 13:05:00,
2013-08-14 09:10:00,80.0,76.0,30.03,SW,225,2.0,6.0,89,0.00,,,0.00,Rainwise IP-100,2013-08-14 13:10:00,
2013-08-14 09:15:00,80.0,76.0,30.04,SW,225,0.0,7.0,87,0.00,,,0.00,Rainwise IP-100,2013-08-14 13:15:00,
2013-08-14 09:20:00,81.0,76.0,30.03,SW,225,0.0,10.0,86,0.00,,,0.00,Rainwise IP-100,2013-08-14 13:20:00,
2013-08-14 09:25:00,81.0,75.0,30.04,SW,225,0.0,7.0,83,0.00,,,0.00,Rainwise IP-100,2013-08-14 13:25:00,
2013-08-14 09:30:00,82.0,76.0,30.04,West,270,1.0,9.0,83,0.00,,,0.00,Rainwise IP-100,2013-08-14 13:30:00,
2013-08-14 09:35:00,82.0,75.0,30.04,SW,225,6.0,8.0,81,0.00,,,0.00,Rainwise IP-100,2013-08-14 13:35:00,
2013-08-14 09:40:00,83.0,76.0,30.04,SW,225,9.0,9.0,80,0.00,,,0.00,Rainwise IP-100,2013-08-14 13:40:00,
2013-08-14 09:45:00,83.0,76.0,30.04,South,180,0.0,9.0,79,0.00,,,0.00,Rainwise IP-100,2013-08-14 13:45:00,
2013-08-14 09:50:00,83.0,75.0,30.04,SW,225,0.0,7.0,78,0.00,,,0.00,Rainwise IP-100,2013-08-14 13:50:00,
2013-08-14 09:55:00,84.0,76.0,30.05,WSW,247,2.0,6.0,77,0.00,,,0.00,Rainwise IP-100,2013-08-14 13:55:00,
2013-08-14 10:00:00,84.0,76.0,30.05,SW,225,5.0,7.0,77,0.00,,,0.00,Rainwise IP-100,2013-08-14 14:00:00,
2013-08-14 10:05:00,85.0,76.0,30.05,SW,225,6.0,7.0,76,0.00,,,0.00,Rainwise IP-100,2013-08-14 14:05:00,
2013-08-14 10:10:00,85.0,76.0,30.05,South,180,0.0,7.0,76,0.00,,,0.00,Rainwise IP-100,2013-08-14 14:10:00,
2013-08-14 10:15:00,85.0,76.0,30.06,SW,225,4.0,7.0,75,0.00,,,0.00,Rainwise IP-100,2013-08-14 14:15:00,
2013-08-14 10:20:00,86.0,76.0,30.06,SW,225,0.0,6.0,74,0.00,,,0.00,Rainwise IP-100,2013-08-14 14:20:00,
2013-08-14 10:25:00,86.0,76.0,30.06,SW,225,0.0,2.0,72,0.00,,,0.00,Rainwise IP-100,2013-08-14 14:25:00,
2013-08-14 10:30:00,87.0,76.0,30.06,SW,225,0.0,2.0,72,0.00,,,0.00,Rainwise IP-100,2013-08-14 14:30:00,
2013-08-14 10:35:00,87.0,76.0,30.06,SW,225,3.0,6.0,70,0.00,,,0.00,Rainwise IP-100,2013-08-14 14:35:00,
2013-08-14 10:40:00,87.0,76.0,30.06,SW,225,0.0,10.0,72,0.00,,,0.00,Rainwise IP-100,2013-08-14 14:40:00,
2013-08-14 10:45:00,87.0,76.0,30.06,West,270,0.0,3.0,70,0.00,,,0.00,Rainwise IP-100,2013-08-14 14:45:00,
2013-08-14 10:50:00,89.0,77.0,30.06,SW,225,3.0,3.0,68,0.00,,,0.00,Rainwise IP-100,2013-08-14 14:50:00,
2013-08-14 10:55:00,88.0,76.0,30.06,NW,315,0.0,7.0,68,0.00,,,0.00,Rainwise IP-100,2013-08-14 14:55:00,
2013-08-14 11:00:00,89.0,76.0,30.07,SW,225,0.0,3.0,67,0.00,,,0.00,Rainwise IP-100,2013-08-14 15:00:00,
2013-08-14 11:05:00,89.0,76.0,30.07,NNW,337,0.0,1.0,66,0.00,,,0.00,Rainwise IP-100,2013-08-14 15:05:00,
2013-08-14 11:10:00,89.0,76.0,30.07,NW,315,0.0,6.0,67,0.00,,,0.00,Rainwise IP-100,2013-08-14 15:10:00,
2013-08-14 11:15:00,89.0,76.0,30.07,SW,225,0.0,0.0,67,0.00,,,0.00,Rainwise IP-100,2013-08-14 15:15:00,
2013-08-14 11:20:00,89.0,76.0,30.07,WSW,247,0.0,4.0,65,0.00,,,0.00,Rainwise IP-100,2013-08-14 15:20:00,
2013-08-14 11:25:00,90.0,75.0,30.08,WSW,247,0.0,6.0,63,0.00,,,0.00,Rainwise IP-100,2013-08-14 15:25:00,
2013-08-14 11:30:00,90.0,76.0,30.07,SW,225,0.0,3.0,65,0.00,,,0.00,Rainwise IP-100,2013-08-14 15:30:00,
2013-08-14 11:35:00,90.0,76.0,30.07,WSW,247,0.0,6.0,65,0.00,,,0.00,Rainwise IP-100,2013-08-14 15:35:00,
2013-08-14 11:40:00,89.0,76.0,30.07,SSW,202,0.0,9.0,65,0.00,,,0.00,Rainwise IP-100,2013-08-14 15:40:00,
2013-08-14 11:45:00,88.0,75.0,30.06,SW,225,2.0,5.0,66,0.00,,,0.00,Rainwise IP-100,2013-08-14 15:45:00,
2013-08-14 11:50:00,87.0,75.0,30.06,SW,225,5.0,7.0,68,0.00,,,0.00,Rainwise IP-100,2013-08-14 15:50:00,
2013-08-14 11:55:00,86.0,74.0,30.05,WSW,247,4.0,9.0,68,0.00,,,0.00,Rainwise IP-100,2013-08-14 15:55:00,
2013-08-14 12:00:00,87.0,75.0,30.05,SW,225,0.0,10.0,69,0.00,,,0.00,Rainwise IP-100,2013-08-14 16:00:00,
2013-08-14 12:05:00,88.0,76.0,30.05,SW,225,2.0,9.0,67,0.00,,,0.00,Rainwise IP-100,2013-08-14 16:05:00,
2013-08-14 12:10:00,88.0,76.0,30.05,SW,225,4.0,9.0,68,0.00,,,0.00,Rainwise IP-100,2013-08-14 16:10:00,
2013-08-14 12:15:00,88.0,75.0,30.05,West,270,0.0,7.0,66,0.00,,,0.00,Rainwise IP-100,2013-08-14 16:15:00,
2013-08-14 12:20:00,88.0,76.0,30.04,SW,225,3.0,7.0,67,0.00,,,0.00,Rainwise IP-100,2013-08-14 16:20:00,
2013-08-14 12:21:00,88.0,76.0,30.04,West,270,1.0,5.0,67,0.00,,,0.00,Rainwise IP-100,2013-08-14 16:21:00,
2013-08-14 12:26:00,88.0,76.0,30.04,SSW,202,0.0,7.0,68,0.00,,,0.00,Rainwise IP-100,2013-08-14 16:26:00,
2013-08-14 12:31:00,88.0,76.0,30.04,SW,225,0.0,6.0,67,0.00,,,0.00,Rainwise IP-100,2013-08-14 16:31:00,
2013-08-14 12:36:00,89.0,76.0,30.04,SW,225,0.0,6.0,66,0.00,,,0.00,Rainwise IP-100,2013-08-14 16:36:00,
2013-08-14 12:41:00,88.0,75.0,30.04,WNW,292,1.0,7.0,66,0.00,,,0.00,Rainwise IP-100,2013-08-14 16:41:00,
2013-08-14 12:46:00,88.0,76.0,30.04,SW,225,1.0,9.0,67,0.00,,,0.00,Rainwise IP-100,2013-08-14 16:46:00,
2013-08-14 12:51:00,88.0,75.0,30.04,South,180,0.0,6.0,66,0.00,,,0.00,Rainwise IP-100,2013-08-14 16:51:00,
2013-08-14 12:56:00,88.0,76.0,30.04,NW,315,0.0,12.0,67,0.00,,,0.00,Rainwise IP-100,2013-08-14 16:56:00,
2013-08-14 13:01:00,86.0,76.0,30.04,WNW,292,6.0,15.0,73,0.00,,,0.00,Rainwise IP-100,2013-08-14 17:01:00,
2013-08-14 13:06:00,85.0,76.0,30.04,WNW,292,3.0,12.0,76,0.00,,,0.00,Rainwise IP-100,2013-08-14 17:06:00,
2013-08-14 13:11:00,84.0,76.0,30.04,SW,225,0.0,12.0,78,0.00,,,0.00,Rainwise IP-100,2013-08-14 17:11:00,
2013-08-14 13:16:00,84.0,76.0,30.03,West,270,6.0,9.0,78,0.00,,,0.00,Rainwise IP-100,2013-08-14 17:16:00,
2013-08-14 13:21:00,83.0,76.0,30.02,WNW,292,5.0,10.0,79,0.00,,,0.00,Rainwise IP-100,2013-08-14 17:21:00,
2013-08-14 13:26:00,82.0,76.0,30.02,West,270,0.0,16.0,84,0.00,,,0.00,Rainwise IP-100,2013-08-14 17:26:00,
2013-08-14 13:31:00,80.0,77.0,30.02,WSW,247,6.0,12.0,92,0.18,,,0.03,Rainwise IP-100,2013-08-14 17:31:00,
2013-08-14 13:36:00,78.0,76.0,30.00,NW,315,8.0,8.0,93,0.30,,,0.06,Rainwise IP-100,2013-08-14 17:36:00,
2013-08-14 13:41:00,78.0,77.0,30.00,East,90,0.0,10.0,97,0.30,,,0.08,Rainwise IP-100,2013-08-14 17:41:00,
2013-08-14 13:46:00,77.0,76.0,30.00,NE,45,0.0,4.0,98,0.18,,,0.08,Rainwise IP-100,2013-08-14 17:46:00,
2013-08-14 13:51:00,77.0,77.0,30.00,East,90,0.0,5.0,100,0.00,,,0.08,Rainwise IP-100,2013-08-14 17:51:00,
2013-08-14 13:56:00,77.0,77.0,30.01,NNE,22,0.0,0.0,100,0.00,,,0.08,Rainwise IP-100,2013-08-14 17:56:00,
2013-08-14 14:01:00,77.0,77.0,30.01,ESE,112,0.0,4.0,100,0.00,,,0.08,Rainwise IP-100,2013-08-14 18:01:00,
2013-08-14 14:06:00,77.0,77.0,30.00,NE,45,0.0,2.0,100,0.00,,,0.08,Rainwise IP-100,2013-08-14 18:06:00,
2013-08-14 14:11:00,77.0,77.0,30.00,SE,135,0.0,6.0,100,0.00,,,0.08,Rainwise IP-100,2013-08-14 18:11:00,
2013-08-14 14:16:00,77.0,77.0,30.00,NE,45,0.0,0.0,100,0.00,,,0.08,Rainwise IP-100,2013-08-14 18:16:00,
2013-08-14 14:21:00,77.0,77.0,30.00,SE,135,0.0,4.0,100,0.00,,,0.08,Rainwise IP-100,2013-08-14 18:21:00,
2013-08-14 14:26:00,77.0,77.0,30.01,NE,45,2.0,5.0,100,0.00,,,0.08,Rainwise IP-100,2013-08-14 18:26:00,
2013-08-14 14:31:00,76.0,76.0,30.00,ESE,112,0.0,3.0,100,0.00,,,0.08,Rainwise IP-100,2013-08-14 18:31:00,
2013-08-14 14:36:00,76.0,76.0,30.00,SE,135,0.0,3.0,100,0.06,,,0.09,Rainwise IP-100,2013-08-14 18:36:00,
2013-08-14 14:41:00,76.0,76.0,30.04,SE,135,0.0,0.0,100,1.62,,,0.37,Rainwise IP-100,2013-08-14 18:41:00,
2013-08-14 14:46:00,75.0,75.0,30.03,ENE,67,1.0,5.0,100,3.72,,,0.74,Rainwise IP-100,2013-08-14 18:46:00,
2013-08-14 14:51:00,75.0,75.0,30.01,SE,135,0.0,4.0,100,4.26,,,1.07,Rainwise IP-100,2013-08-14 18:51:00,
2013-08-14 14:56:00,74.0,74.0,30.01,WSW,247,0.0,4.0,100,3.78,,,1.36,Rainwise IP-100,2013-08-14 18:56:00,
2013-08-14 15:01:00,74.0,74.0,30.01,SE,135,0.0,2.0,100,2.34,,,1.46,Rainwise IP-100,2013-08-14 19:01:00,
2013-08-14 15:06:00,74.0,74.0,30.01,SW,225,0.0,0.0,100,0.96,,,1.51,Rainwise IP-100,2013-08-14 19:06:00,
2013-08-14 15:12:00,74.0,74.0,30.00,West,270,0.0,5.0,100,0.78,,,1.60,Rainwise IP-100,2013-08-14 19:12:00,
2013-08-14 15:13:00,74.0,74.0,30.00,North,360,0.0,5.0,100,0.72,,,1.61,Rainwise IP-100,2013-08-14 19:13:00,
2013-08-14 15:18:00,74.0,74.0,30.01,West,270,0.0,6.0,100,0.66,,,1.65,Rainwise IP-100,2013-08-14 19:18:00,
2013-08-14 15:27:00,74.0,74.0,30.01,West,270,0.0,0.0,100,0.90,,,1.78,Rainwise IP-100,2013-08-14 19:27:00,
2013-08-14 15:32:00,74.0,74.0,30.00,SE,135,0.0,0.0,100,1.50,,,1.97,Rainwise IP-100,2013-08-14 19:32:00,
2013-08-14 15:37:00,74.0,74.0,30.00,SE,135,0.0,0.0,100,2.10,,,2.14,Rainwise IP-100,2013-08-14 19:37:00,
2013-08-14 15:42:00,74.0,74.0,30.00,East,90,0.0,0.0,100,1.44,,,2.20,Rainwise IP-100,2013-08-14 19:42:00,
2013-08-14 15:47:00,74.0,74.0,30.00,NNW,337,0.0,0.0,100,0.66,,,2.24,Rainwise IP-100,2013-08-14 19:47:00,
2013-08-14 15:52:00,74.0,74.0,30.00,SE,135,0.0,1.0,100,0.42,,,2.27,Rainwise IP-100,2013-08-14 19:52:00,
2013-08-14 15:57:00,74.0,74.0,30.00,East,90,0.0,0.0,100,0.42,,,2.32,Rainwise IP-100,2013-08-14 19:57:00,
2013-08-14 16:02:00,74.0,74.0,30.00,SE,135,0.0,0.0,100,0.48,,,2.34,Rainwise IP-100,2013-08-14 20:02:00,
2013-08-14 16:07:00,74.0,74.0,29.99,East,90,0.0,3.0,100,0.42,,,2.38,Rainwise IP-100,2013-08-14 20:07:00,
2013-08-14 16:12:00,74.0,74.0,30.00,East,90,0.0,2.0,100,0.36,,,2.40,Rainwise IP-100,2013-08-14 20:12:00,
2013-08-14 16:17:00,73.0,73.0,29.99,ENE,67,0.0,4.0,100,0.18,,,2.41,Rainwise IP-100,2013-08-14 20:17:00,
2013-08-14 16:22:00,73.0,73.0,29.99,SW,225,0.0,0.0,100,0.12,,,2.42,Rainwise IP-100,2013-08-14 20:22:00,
2013-08-14 16:27:00,73.0,73.0,30.00,SW,225,0.0,0.0,100,0.06,,,2.42,Rainwise IP-100,2013-08-14 20:27:00,
2013-08-14 16:32:00,73.0,73.0,30.00,North,360,0.0,0.0,100,0.06,,,2.43,Rainwise IP-100,2013-08-14 20:32:00,
2013-08-14 16:37:00,73.0,73.0,30.00,North,360,0.0,0.0,100,0.18,,,2.45,Rainwise IP-100,2013-08-14 20:37:00,
2013-08-14 16:42:00,73.0,73.0,30.00,North,360,0.0,0.0,100,0.18,,,2.46,Rainwise IP-100,2013-08-14 20:42:00,
2013-08-14 16:47:00,73.0,73.0,30.00,NW,315,0.0,0.0,100,0.06,,,2.46,Rainwise IP-100,2013-08-14 20:47:00,
2013-08-14 16:52:00,73.0,73.0,29.99,NW,315,0.0,0.0,100,0.00,,,2.46,Rainwise IP-100,2013-08-14 20:52:00,
2013-08-14 16:57:00,73.0,73.0,29.99,NW,315,0.0,0.0,100,0.06,,,2.47,Rainwise IP-100,2013-08-14 20:57:00,
2013-08-14 17:02:00,73.0,73.0,30.00,NW,315,0.0,0.0,100,0.06,,,2.47,Rainwise IP-100,2013-08-14 21:02:00,
2013-08-14 17:07:00,73.0,73.0,29.99,NW,315,0.0,0.0,100,0.06,,,2.48,Rainwise IP-100,2013-08-14 21:07:00,
2013-08-14 17:12:00,74.0,74.0,30.01,NNE,22,0.0,0.0,100,0.06,,,2.48,Rainwise IP-100,2013-08-14 21:12:00,
2013-08-14 17:17:00,74.0,74.0,30.01,ENE,67,0.0,0.0,100,0.00,,,2.48,Rainwise IP-100,2013-08-14 21:17:00,
2013-08-14 17:22:00,74.0,74.0,30.01,ENE,67,0.0,0.0,100,0.00,,,2.48,Rainwise IP-100,2013-08-14 21:22:00,
2013-08-14 17:27:00,74.0,74.0,30.02,NW,315,0.0,0.0,100,0.00,,,2.48,Rainwise IP-100,2013-08-14 21:27:00,
2013-08-14 17:32:00,74.0,74.0,30.02,West,270,0.0,0.0,100,0.00,,,2.48,Rainwise IP-100,2013-08-14 21:32:00,
2013-08-14 17:37:00,74.0,74.0,30.01,WNW,292,0.0,0.0,100,0.00,,,2.48,Rainwise IP-100,2013-08-14 21:37:00,
2013-08-14 17:42:00,74.0,74.0,30.00,WNW,292,0.0,0.0,100,0.00,,,2.48,Rainwise IP-100,2013-08-14 21:42:00,
2013-08-14 17:47:00,74.0,74.0,30.01,East,90,0.0,0.0,100,0.00,,,2.48,Rainwise IP-100,2013-08-14 21:47:00,
2013-08-14 17:52:00,74.0,74.0,30.00,East,90,0.0,0.0,100,0.00,,,2.48,Rainwise IP-100,2013-08-14 21:52:00,
2013-08-14 17:57:00,74.0,74.0,30.01,East,90,0.0,0.0,100,0.00,,,2.48,Rainwise IP-100,2013-08-14 21:57:00,
2013-08-14 18:02:00,74.0,74.0,30.01,East,90,0.0,0.0,100,0.06,,,2.49,Rainwise IP-100,2013-08-14 22:02:00,
2013-08-14 18:07:00,74.0,74.0,30.01,East,90,0.0,0.0,100,0.06,,,2.49,Rainwise IP-100,2013-08-14 22:07:00,
2013-08-14 18:12:00,74.0,74.0,30.00,NNE,22,0.0,2.0,100,0.00,,,2.49,Rainwise IP-100,2013-08-14 22:12:00,
2013-08-14 18:17:00,74.0,74.0,30.00,ENE,67,0.0,0.0,100,0.00,,,2.49,Rainwise IP-100,2013-08-14 22:17:00,
2013-08-14 18:22:00,74.0,74.0,30.00,SE,135,0.0,2.0,100,0.00,,,2.49,Rainwise IP-100,2013-08-14 22:22:00,
2013-08-14 18:27:00,74.0,74.0,30.01,ESE,112,0.0,4.0,100,0.06,,,2.50,Rainwise IP-100,2013-08-14 22:27:00,
2013-08-14 18:32:00,74.0,74.0,30.00,East,90,0.0,0.0,100,0.06,,,2.50,Rainwise IP-100,2013-08-14 22:32:00,
2013-08-14 18:37:00,74.0,74.0,30.01,East,90,0.0,0.0,100,0.00,,,2.50,Rainwise IP-100,2013-08-14 22:37:00,
2013-08-14 18:42:00,74.0,74.0,30.01,East,90,0.0,0.0,100,0.00,,,2.50,Rainwise IP-100,2013-08-14 22:42:00,
2013-08-14 18:47:00,74.0,74.0,30.01,East,90,0.0,0.0,100,0.06,,,2.51,Rainwise IP-100,2013-08-14 22:47:00,
2013-08-14 18:52:00,74.0,74.0,30.02,ENE,67,0.0,0.0,100,0.06,,,2.51,Rainwise IP-100,2013-08-14 22:52:00,
2013-08-14 18:57:00,73.0,73.0,30.02,WNW,292,0.0,1.0,100,0.00,,,2.51,Rainwise IP-100,2013-08-14 22:57:00,
2013-08-14 19:02:00,73.0,73.0,30.03,WNW,292,0.0,0.0,100,0.00,,,2.51,Rainwise IP-100,2013-08-14 23:02:00,
2013-08-14 19:07:00,73.0,73.0,30.03,WNW,292,0.0,0.0,100,0.00,,,2.51,Rainwise IP-100,2013-08-14 23:07:00,
2013-08-14 19:12:00,73.0,73.0,30.03,WNW,292,0.0,0.0,100,0.00,,,2.51,Rainwise IP-100,2013-08-14 23:12:00,
2013-08-14 19:17:00,73.0,73.0,30.04,WNW,292,0.0,0.0,100,0.06,,,2.52,Rainwise IP-100,2013-08-14 23:17:00,
2013-08-14 19:22:00,73.0,73.0,30.04,WNW,292,0.0,0.0,100,0.06,,,2.52,Rainwise IP-100,2013-08-14 23:22:00,
2013-08-14 19:27:00,73.0,73.0,30.04,WNW,292,0.0,0.0,100,0.12,,,2.54,Rainwise IP-100,2013-08-14 23:27:00,
2013-08-14 19:32:00,73.0,73.0,30.03,NE,45,0.0,0.0,100,0.24,,,2.56,Rainwise IP-100,2013-08-14 23:32:00,
2013-08-14 19:37:00,73.0,73.0,30.02,NNW,337,0.0,0.0,100,0.24,,,2.59,Rainwise IP-100,2013-08-14 23:37:00,
2013-08-14 19:42:00,73.0,73.0,30.03,WNW,292,0.0,0.0,100,0.30,,,2.61,Rainwise IP-100,2013-08-14 23:42:00,
2013-08-14 19:47:00,73.0,73.0,30.03,NW,315,0.0,0.0,100,0.36,,,2.64,Rainwise IP-100,2013-08-14 23:47:00,
2013-08-14 19:52:00,73.0,73.0,30.03,West,270,0.0,0.0,100,0.36,,,2.67,Rainwise IP-100,2013-08-14 23:52:00,
2013-08-14 19:57:00,73.0,73.0,30.03,WNW,292,0.0,1.0,100,0.30,,,2.69,Rainwise IP-100,2013-08-14 23:57:00,
2013-08-14 20:02:00,73.0,73.0,30.02,WNW,292,0.0,0.0,100,0.18,,,2.71,Rainwise IP-100,2013-08-15 00:02:00,
2013-08-14 20:07:00,73.0,73.0,30.04,WNW,292,0.0,0.0,100,0.18,,,2.72,Rainwise IP-100,2013-08-15 00:07:00,
2013-08-14 20:12:00,73.0,73.0,30.04,WNW,292,0.0,0.0,100,0.18,,,2.73,Rainwise IP-100,2013-08-15 00:12:00,
2013-08-14 20:17:00,73.0,73.0,30.04,WNW,292,0.0,0.0,100,0.12,,,2.74,Rainwise IP-100,2013-08-15 00:17:00,
2013-08-14 20:22:00,73.0,73.0,30.05,NW,315,0.0,0.0,100,0.18,,,2.76,Rainwise IP-100,2013-08-15 00:22:00,
2013-08-14 20:27:00,73.0,73.0,30.04,North,360,0.0,0.0,100,0.18,,,2.77,Rainwise IP-100,2013-08-15 00:27:00,
2013-08-14 20:32:00,73.0,73.0,30.05,West,270,0.0,0.0,100,0.12,,,2.78,Rainwise IP-100,2013-08-15 00:32:00,
2013-08-14 20:37:00,73.0,73.0,30.06,NNW,337,0.0,0.0,100,0.18,,,2.80,Rainwise IP-100,2013-08-15 00:37:00,
2013-08-14 20:42:00,73.0,73.0,30.06,NNW,337,0.0,0.0,100,0.24,,,2.82,Rainwise IP-100,2013-08-15 00:42:00,
2013-08-14 20:47:00,73.0,73.0,30.06,NNW,337,0.0,0.0,100,0.24,,,2.84,Rainwise IP-100,2013-08-15 00:47:00,
2013-08-14 20:52:00,73.0,73.0,30.05,NNW,337,0.0,0.0,100,0.18,,,2.85,Rainwise IP-100,2013-08-15 00:52:00,
2013-08-14 20:57:00,73.0,73.0,30.05,NNW,337,0.0,0.0,100,0.12,,,2.86,Rainwise IP-100,2013-08-15 00:57:00,
2013-08-14 21:02:00,73.0,73.0,30.06,NNW,337,0.0,0.0,100,0.18,,,2.88,Rainwise IP-100,2013-08-15 01:02:00,
2013-08-14 21:07:00,73.0,73.0,30.05,NNW,337,0.0,0.0,100,0.18,,,2.89,Rainwise IP-100,2013-08-15 01:07:00,
2013-08-14 21:12:00,73.0,73.0,30.06,NNW,337,0.0,0.0,100,0.12,,,2.90,Rainwise IP-100,2013-08-15 01:12:00,
2013-08-14 21:17:00,73.0,73.0,30.06,NNW,337,0.0,0.0,100,0.18,,,2.92,Rainwise IP-100,2013-08-15 01:17:00,
2013-08-14 21:22:00,73.0,73.0,30.06,NNW,337,0.0,0.0,100,0.18,,,2.93,Rainwise IP-100,2013-08-15 01:22:00,
2013-08-14 21:27:00,73.0,73.0,30.06,NNW,337,0.0,0.0,100,0.12,,,2.94,Rainwise IP-100,2013-08-15 01:27:00,
2013-08-14 21:32:00,73.0,73.0,30.06,NNW,337,0.0,0.0,100,0.06,,,2.94,Rainwise IP-100,2013-08-15 01:32:00,
2013-08-14 21:37:00,73.0,73.0,30.06,NNW,337,0.0,0.0,100,0.00,,,2.94,Rainwise IP-100,2013-08-15 01:37:00,
2013-08-14 21:42:00,73.0,73.0,30.06,NNW,337,0.0,0.0,100,0.06,,,2.95,Rainwise IP-100,2013-08-15 01:42:00,
2013-08-14 21:47:00,73.0,73.0,30.06,NNW,337,0.0,0.0,100,0.12,,,2.96,Rainwise IP-100,2013-08-15 01:47:00,
2013-08-14 21:52:00,73.0,73.0,30.06,NNW,337,0.0,0.0,100,0.12,,,2.97,Rainwise IP-100,2013-08-15 01:52:00,
2013-08-14 21:57:00,73.0,73.0,30.06,NNW,337,0.0,0.0,100,0.12,,,2.98,Rainwise IP-100,2013-08-15 01:57:00,
2013-08-14 22:02:00,73.0,73.0,30.06,NNW,337,0.0,0.0,100,0.06,,,2.98,Rainwise IP-100,2013-08-15 02:02:00,
2013-08-14 22:07:00,73.0,73.0,30.06,SE,135,0.0,0.0,100,0.06,,,2.99,Rainwise IP-100,2013-08-15 02:07:00,
2013-08-14 22:12:00,73.0,73.0,30.06,NE,45,0.0,0.0,100,0.06,,,2.99,Rainwise IP-100,2013-08-15 02:12:00,
2013-08-14 22:17:00,73.0,73.0,30.06,SSW,202,0.0,0.0,100,0.06,,,3.00,Rainwise IP-100,2013-08-15 02:17:00,
2013-08-14 22:22:00,74.0,74.0,30.06,WNW,292,0.0,3.0,100,0.06,,,3.00,Rainwise IP-100,2013-08-15 02:22:00,
2013-08-14 22:27:00,74.0,74.0,30.06,North,360,0.0,0.0,100,0.00,,,3.00,Rainwise IP-100,2013-08-15 02:27:00,
2013-08-14 22:32:00,74.0,74.0,30.06,ENE,67,0.0,0.0,100,0.00,,,3.00,Rainwise IP-100,2013-08-15 02:32:00,
2013-08-14 22:37:00,74.0,74.0,30.06,NNW,337,0.0,5.0,100,0.00,,,3.00,Rainwise IP-100,2013-08-15 02:37:00,
2013-08-14 22:42:00,74.0,74.0,30.06,NE,45,0.0,3.0,100,0.06,,,3.01,Rainwise IP-100,2013-08-15 02:42:00,
2013-08-14 22:47:00,73.0,73.0,30.06,South,180,0.0,5.0,100,0.06,,,3.01,Rainwise IP-100,2013-08-15 02:47:00,
2013-08-14 22:52:00,73.0,73.0,30.06,NW,315,0.0,0.0,100,0.00,,,3.01,Rainwise IP-100,2013-08-15 02:52:00,
2013-08-14 22:57:00,73.0,73.0,30.06,WNW,292,0.0,5.0,100,0.00,,,3.01,Rainwise IP-100,2013-08-15 02:57:00,
2013-08-14 23:02:00,73.0,73.0,30.07,WNW,292,0.0,5.0,100,0.00,,,3.01,Rainwise IP-100,2013-08-15 03:02:00,
2013-08-14 23:07:00,73.0,73.0,30.06,NNW,337,0.0,0.0,100,0.00,,,3.01,Rainwise IP-100,2013-08-15 03:07:00,
2013-08-14 23:12:00,72.0,72.0,30.07,West,270,0.0,0.0,100,0.00,,,3.01,Rainwise IP-100,2013-08-15 03:12:00,
2013-08-14 23:17:00,72.0,72.0,30.07,NNW,337,0.0,2.0,100,0.00,,,3.01,Rainwise IP-100,2013-08-15 03:17:00,
2013-08-14 23:22:00,72.0,72.0,30.08,NNW,337,0.0,0.0,100,0.00,,,3.01,Rainwise IP-100,2013-08-15 03:22:00,
2013-08-14 23:27:00,72.0,72.0,30.08,SSE,157,0.0,2.0,100,0.00,,,3.01,Rainwise IP-100,2013-08-15 03:27:00,
2013-08-14 23:32:00,72.0,72.0,30.08,East,90,0.0,2.0,100,0.00,,,3.01,Rainwise IP-100,2013-08-15 03:32:00,
2013-08-14 23:37:00,72.0,72.0,30.08,NNW,337,0.0,0.0,100,0.00,,,3.01,Rainwise IP-100,2013-08-15 03:37:00,
2013-08-14 23:42:00,72.0,72.0,30.08,NNE,22,0.0,0.0,100,0.00,,,3.01,Rainwise IP-100,2013-08-15 03:42:00,
2013-08-14 23:47:00,72.0,72.0,30.08,ENE,67,0.0,0.0,100,0.00,,,3.01,Rainwise IP-100,2013-08-15 03:47:00,
2013-08-14 23:52:00,72.0,72.0,30.07,East,90,0.0,0.0,100,0.00,,,3.01,Rainwise IP-100,2013-08-15 03:52:00,
2013-08-14 23:57:00,72.0,72.0,30.07,ESE,112,0.0,4.0,100,0.00,,,3.01,Rainwise IP-100,2013-08-15 03:57:00,